Vela II-A

operational
NORAD ID: 836 Int'l Des: 1964-040 Owner: AFSSD Country: US
HEOELLIPTICALHEO_ELLIPTICAL

Über Vela II-A

Beschreibung wird geladen...

Live-Position

3D-Globus wird geladen...

Nächste Überflüge

Höhenverlauf

Altitude vs Time

uPlot chart will show altitude changes over time

Zweizeiliger Elementsatz

1 836U 64040A 25315.32311917 .00000608 00000-0 00000+0 0 9997
2 836 51.9573 123.1715 4744226 284.4381 0.7761 0.23916737 10479
Epoch: 11. Nov. 2025 • Age: 620 hours

Aktueller Status

Höhe 108379.2 km
Geschwindigkeit 1.82 km/s
Subsatellitenpunkt 35.41°N, 18.8°E
Typ other

Große Konstellationen

Loading constellations...